Location: Newark
(1.5000°S, 132.5000°E)
Time: 04:27:46
(UTC+00:00)

Envisat - Visible Passes

Search period start: 19 October 2019 00:00
Search period end: 29 October 2019 00:00
Orbit: 764 x 766 km, 98.1° (Epoch: 18 October)

Date Brightness Start Highest point End Pass type
(mag) Time Alt. Az. Time Alt. Az. Time Alt. Az.
19 Oct 2.9 09:34:24 10° SSE 09:39:27 69° ENE 09:44:29 10° N visible
20 Oct 5.6 10:37:54 10° SSW 10:41:32 20° WSW 10:45:09 10° WNW visible
21 Oct 3.7 09:59:55 10° S 10:04:53 56° WSW 10:09:51 10° NNW visible
22 Oct 3.2 09:23:19 10° SSE 09:28:13 50° ENE 09:33:06 10° N visible
23 Oct 5.1 10:26:04 10° SSW 10:30:18 27° WSW 10:34:32 10° NW visible
24 Oct 3.1 09:48:34 10° S 09:53:39 78° WSW 09:58:43 10° NNW visible
25 Oct 3.5 09:12:21 10° SE 09:16:59 36° ENE 09:21:36 10° NNE visible
25 Oct 6.1 10:53:31 10° SW 10:55:42 13° WSW 10:57:53 10° WNW visible
26 Oct 4.6 10:14:26 10° SSW 10:19:04 36° WSW 10:23:42 10° NW visible
27 Oct 2.9 09:37:20 10° SSE 09:42:25 78° ENE 09:47:29 10° N visible
28 Oct 5.8 10:41:09 10° SW 10:44:28 18° WSW 10:47:48 10° WNW visible
